CARTOSAT-3

Last updated on Fri Jul 11 2025 00:02:28 GMT+0000 (Coordinated Universal Time)

1 44804U 19081A 25191.58490098 .00002470 00000+0 12003-3 0 9991 2 44804 97.4797 252.9003 0012024 261.8400 98.1470 15.19323266311604
UTC large
Height (km)
Speed (km/s)
/
Latitude / Longitude
Inclination (degrees)
Orbital Period (minutes)
Azimuth
Elevation
Range (km)
Doppler Factor

Next 0 passes for location: London (51.5072 / 0.1276)

Sorry there are no passes over London.